Year,Month,Day,Hour,Minute,Value (Times are PST for temperature in C)
2019,05,26,00,00,10.30
2019,05,26,00,01,10.30
2019,05,26,00,02,10.30
2019,05,26,00,03,10.30
2019,05,26,00,04,10.30
2019,05,26,00,05,10.30
2019,05,26,00,06,10.30
2019,05,26,00,07,10.30
2019,05,26,00,08,10.20
2019,05,26,00,09,10.20
2019,05,26,00,10,10.30
2019,05,26,00,11,10.30
2019,05,26,00,12,10.30
2019,05,26,00,13,10.20
2019,05,26,00,14,10.20
2019,05,26,00,15,10.20
2019,05,26,00,16,10.20
2019,05,26,00,17,10.10
2019,05,26,00,18,10.00
2019,05,26,00,19,10.00
2019,05,26,00,20,9.90
2019,05,26,00,21,9.90
2019,05,26,00,22,9.90
2019,05,26,00,23,9.90
2019,05,26,00,24,9.90
2019,05,26,00,25,9.90
2019,05,26,00,26,9.90
2019,05,26,00,27,9.80
2019,05,26,00,28,9.80
2019,05,26,00,29,9.80
2019,05,26,00,30,9.80
2019,05,26,00,31,9.80
2019,05,26,00,32,9.80
2019,05,26,00,33,9.80
2019,05,26,00,34,9.80
2019,05,26,00,35,9.80
2019,05,26,00,36,9.70
2019,05,26,00,37,9.70
2019,05,26,00,38,9.70
2019,05,26,00,39,9.70
2019,05,26,00,40,9.70
2019,05,26,00,41,9.70
2019,05,26,00,42,9.70
2019,05,26,00,43,9.60
2019,05,26,00,44,9.60
2019,05,26,00,45,9.60
2019,05,26,00,46,9.60
2019,05,26,00,47,9.50
2019,05,26,00,48,9.50
2019,05,26,00,49,9.50
2019,05,26,00,50,9.50
2019,05,26,00,51,9.40
2019,05,26,00,52,9.40
2019,05,26,00,53,9.40
2019,05,26,00,54,9.40
2019,05,26,00,55,9.40
2019,05,26,00,56,9.40
2019,05,26,00,57,9.40
2019,05,26,00,58,9.30
2019,05,26,00,59,9.30
2019,05,26,01,00,9.30
2019,05,26,01,01,9.30
2019,05,26,01,02,9.40
2019,05,26,01,03,9.40
2019,05,26,01,04,9.40
2019,05,26,01,05,9.40
2019,05,26,01,06,9.40
2019,05,26,01,07,9.40
2019,05,26,01,08,9.40
2019,05,26,01,09,9.40
2019,05,26,01,10,9.40
2019,05,26,01,11,9.40
2019,05,26,01,12,9.30
2019,05,26,01,13,9.30
2019,05,26,01,14,9.30
2019,05,26,01,15,9.40
2019,05,26,01,16,9.40
2019,05,26,01,17,9.40
2019,05,26,01,18,9.40
2019,05,26,01,19,9.40
2019,05,26,01,20,9.50
2019,05,26,01,21,9.50
2019,05,26,01,22,9.50
2019,05,26,01,23,9.50
2019,05,26,01,24,9.40
2019,05,26,01,25,9.40
2019,05,26,01,26,9.40
2019,05,26,01,27,9.40
2019,05,26,01,28,9.40
2019,05,26,01,29,9.40
2019,05,26,01,30,9.40
2019,05,26,01,31,9.40
2019,05,26,01,32,9.40
2019,05,26,01,33,9.40
2019,05,26,01,34,9.40
2019,05,26,01,35,9.40
2019,05,26,01,36,9.40
2019,05,26,01,37,9.40
2019,05,26,01,38,9.40
2019,05,26,01,39,9.40
2019,05,26,01,40,9.40
2019,05,26,01,41,9.40
2019,05,26,01,42,9.40
2019,05,26,01,43,9.40
2019,05,26,01,44,9.40
2019,05,26,01,45,9.40
2019,05,26,01,46,9.30
2019,05,26,01,47,9.30
2019,05,26,01,48,9.30
2019,05,26,01,49,9.30
2019,05,26,01,50,9.30
2019,05,26,01,51,9.30
2019,05,26,01,52,9.30
2019,05,26,01,53,9.30
2019,05,26,01,54,9.30
2019,05,26,01,55,9.30
2019,05,26,01,56,9.30
2019,05,26,01,57,9.30
2019,05,26,01,58,9.40
2019,05,26,01,59,9.40
2019,05,26,02,00,9.40
2019,05,26,02,01,9.40
2019,05,26,02,02,9.40
2019,05,26,02,03,9.40
2019,05,26,02,04,9.40
2019,05,26,02,05,9.40
2019,05,26,02,06,9.40
2019,05,26,02,07,9.40
2019,05,26,02,08,9.40
2019,05,26,02,09,9.40
2019,05,26,02,10,9.40
2019,05,26,02,11,9.40
2019,05,26,02,12,9.40
2019,05,26,02,13,9.40
2019,05,26,02,14,9.40
2019,05,26,02,15,9.40
2019,05,26,02,16,9.40
2019,05,26,02,17,9.30
2019,05,26,02,18,9.30
2019,05,26,02,19,9.30
2019,05,26,02,20,9.30
2019,05,26,02,21,9.30
2019,05,26,02,22,9.30
2019,05,26,02,23,9.30
2019,05,26,02,24,9.30
2019,05,26,02,25,9.30
2019,05,26,02,26,9.30
2019,05,26,02,27,9.30
2019,05,26,02,28,9.30
2019,05,26,02,29,9.30
2019,05,26,02,30,9.30
2019,05,26,02,31,9.30
2019,05,26,02,32,9.30
2019,05,26,02,33,9.30
2019,05,26,02,34,9.30
2019,05,26,02,35,9.30
2019,05,26,02,36,9.30
2019,05,26,02,37,9.30
2019,05,26,02,38,9.30
2019,05,26,02,39,9.30
2019,05,26,02,40,9.30
2019,05,26,02,41,9.30
2019,05,26,02,42,9.30
2019,05,26,02,43,9.30
2019,05,26,02,44,9.30
2019,05,26,02,45,9.30
2019,05,26,02,46,9.40
2019,05,26,02,47,9.30
2019,05,26,02,48,9.40
2019,05,26,02,49,9.30
2019,05,26,02,50,9.30
2019,05,26,02,51,9.30
2019,05,26,02,52,9.30
2019,05,26,02,53,9.30
2019,05,26,02,54,9.30
2019,05,26,02,55,9.30
2019,05,26,02,56,9.30
2019,05,26,02,57,9.30
2019,05,26,02,58,9.30
2019,05,26,02,59,9.30
2019,05,26,03,00,9.30
2019,05,26,03,01,9.30
2019,05,26,03,02,9.30
2019,05,26,03,03,9.30
2019,05,26,03,04,9.30
2019,05,26,03,05,9.30
2019,05,26,03,06,9.30
2019,05,26,03,07,9.30
2019,05,26,03,08,9.30
2019,05,26,03,09,9.30
2019,05,26,03,10,9.20
2019,05,26,03,11,9.20
2019,05,26,03,12,9.20
2019,05,26,03,13,9.20
2019,05,26,03,14,9.20
2019,05,26,03,15,9.20
2019,05,26,03,16,9.20
2019,05,26,03,17,9.20
2019,05,26,03,18,9.30
2019,05,26,03,19,9.30
2019,05,26,03,20,9.30
2019,05,26,03,21,9.30
2019,05,26,03,22,9.30
2019,05,26,03,23,9.30
2019,05,26,03,24,9.30
2019,05,26,03,25,9.30
2019,05,26,03,26,9.30
2019,05,26,03,27,9.40
2019,05,26,03,28,9.40
2019,05,26,03,29,9.40
2019,05,26,03,30,9.40
2019,05,26,03,31,9.40
2019,05,26,03,32,9.40
2019,05,26,03,33,9.40
2019,05,26,03,34,9.40
2019,05,26,03,35,9.40
2019,05,26,03,36,9.30
2019,05,26,03,37,9.30
2019,05,26,03,38,9.30
2019,05,26,03,39,9.30
2019,05,26,03,40,9.30
2019,05,26,03,41,9.30
2019,05,26,03,42,9.30
2019,05,26,03,43,9.30
2019,05,26,03,44,9.30
2019,05,26,03,45,9.30
2019,05,26,03,46,9.30
2019,05,26,03,47,9.30
2019,05,26,03,48,9.30
2019,05,26,03,49,9.30
2019,05,26,03,50,9.30
2019,05,26,03,51,9.30
2019,05,26,03,52,9.30
2019,05,26,03,53,9.30
2019,05,26,03,54,9.30
2019,05,26,03,55,9.30
2019,05,26,03,56,9.30
2019,05,26,03,57,9.30
2019,05,26,03,58,9.30
2019,05,26,03,59,9.30
2019,05,26,04,00,9.30
2019,05,26,04,01,9.30
2019,05,26,04,02,9.30
2019,05,26,04,03,9.30
2019,05,26,04,04,9.30
2019,05,26,04,05,9.30
2019,05,26,04,06,9.30
2019,05,26,04,07,9.30
2019,05,26,04,08,9.30
2019,05,26,04,09,9.40
2019,05,26,04,10,9.40
2019,05,26,04,11,9.40
2019,05,26,04,12,9.40
2019,05,26,04,13,9.40
2019,05,26,04,14,9.40
2019,05,26,04,15,9.40
2019,05,26,04,16,9.40
2019,05,26,04,17,9.40
2019,05,26,04,18,9.40
2019,05,26,04,19,9.40
2019,05,26,04,20,9.30
2019,05,26,04,21,9.30
2019,05,26,04,22,9.30
2019,05,26,04,23,9.30
2019,05,26,04,24,9.30
2019,05,26,04,25,9.40
2019,05,26,04,26,9.40
2019,05,26,04,27,9.40
2019,05,26,04,28,9.40
2019,05,26,04,29,9.40
2019,05,26,04,30,9.40
2019,05,26,04,31,9.40
2019,05,26,04,32,9.40
2019,05,26,04,33,9.40
2019,05,26,04,34,9.40
2019,05,26,04,35,9.30
2019,05,26,04,36,9.30
2019,05,26,04,37,9.30
2019,05,26,04,38,9.30
2019,05,26,04,39,9.30
2019,05,26,04,40,9.30
2019,05,26,04,41,9.30
2019,05,26,04,42,9.20
2019,05,26,04,43,9.20
2019,05,26,04,44,9.20
2019,05,26,04,45,9.20
2019,05,26,04,46,9.30
2019,05,26,04,47,9.30
2019,05,26,04,48,9.30
2019,05,26,04,49,9.30
2019,05,26,04,50,9.30
2019,05,26,04,51,9.30
2019,05,26,04,52,9.30
2019,05,26,04,53,9.30
2019,05,26,04,54,9.30
2019,05,26,04,55,9.30
2019,05,26,04,56,9.30
2019,05,26,04,57,9.30
2019,05,26,04,58,9.30
2019,05,26,04,59,9.30
2019,05,26,05,00,9.30
2019,05,26,05,01,9.20
2019,05,26,05,02,9.20
2019,05,26,05,03,9.20
2019,05,26,05,04,9.20
2019,05,26,05,05,9.20
2019,05,26,05,06,9.20
2019,05,26,05,07,9.20
2019,05,26,05,08,9.20
2019,05,26,05,09,9.20
2019,05,26,05,10,9.20
2019,05,26,05,11,9.10
2019,05,26,05,12,9.10
2019,05,26,05,13,9.10
2019,05,26,05,14,9.10
2019,05,26,05,15,9.00
2019,05,26,05,16,9.00
2019,05,26,05,17,9.00
2019,05,26,05,18,9.00
2019,05,26,05,19,9.00
2019,05,26,05,20,9.00
2019,05,26,05,21,9.00
2019,05,26,05,22,9.00
2019,05,26,05,23,9.00
2019,05,26,05,24,9.00
2019,05,26,05,25,9.10
2019,05,26,05,26,9.10
2019,05,26,05,27,9.10
2019,05,26,05,28,9.10
2019,05,26,05,29,9.10
2019,05,26,05,30,9.10
2019,05,26,05,31,9.20
2019,05,26,05,32,9.20
2019,05,26,05,33,9.20
2019,05,26,05,34,9.20
2019,05,26,05,35,9.20
2019,05,26,05,36,9.20
2019,05,26,05,37,9.20
2019,05,26,05,38,9.20
2019,05,26,05,39,9.20
2019,05,26,05,40,9.20
2019,05,26,05,41,9.20
2019,05,26,05,42,9.30
2019,05,26,05,43,9.20
2019,05,26,05,44,9.20
2019,05,26,05,45,9.20
2019,05,26,05,46,9.20
2019,05,26,05,47,9.20
2019,05,26,05,48,9.30
2019,05,26,05,49,9.30
2019,05,26,05,50,9.30
2019,05,26,05,51,9.30
2019,05,26,05,52,9.30
2019,05,26,05,53,9.30
2019,05,26,05,54,9.30
2019,05,26,05,55,9.30
2019,05,26,05,56,9.30
2019,05,26,05,57,9.30
2019,05,26,05,58,9.30
2019,05,26,05,59,9.30
2019,05,26,06,00,9.40
2019,05,26,06,01,9.40
2019,05,26,06,02,9.40
2019,05,26,06,03,9.40
2019,05,26,06,04,9.50
2019,05,26,06,05,9.50
2019,05,26,06,06,9.50
2019,05,26,06,07,9.50
2019,05,26,06,08,9.50
2019,05,26,06,09,9.50
2019,05,26,06,10,9.60
2019,05,26,06,11,9.60
2019,05,26,06,12,9.60
2019,05,26,06,13,9.60
2019,05,26,06,14,9.70
2019,05,26,06,15,9.70
2019,05,26,06,16,9.70
2019,05,26,06,17,9.80
2019,05,26,06,18,9.80
2019,05,26,06,19,9.80
2019,05,26,06,20,9.90
2019,05,26,06,21,9.90
2019,05,26,06,22,9.90
2019,05,26,06,23,10.00
2019,05,26,06,24,10.00
2019,05,26,06,25,10.00
2019,05,26,06,26,10.10
2019,05,26,06,27,10.10
2019,05,26,06,28,10.10
2019,05,26,06,29,10.10
2019,05,26,06,30,10.20
2019,05,26,06,31,10.20
2019,05,26,06,32,10.20
2019,05,26,06,33,10.20
2019,05,26,06,34,10.30
2019,05,26,06,35,10.30
2019,05,26,06,36,10.30
2019,05,26,06,37,10.30
2019,05,26,06,38,10.40
2019,05,26,06,39,10.40
2019,05,26,06,40,10.50
2019,05,26,06,41,10.50
2019,05,26,06,42,10.60
2019,05,26,06,43,10.60
2019,05,26,06,44,10.60
2019,05,26,06,45,10.70
2019,05,26,06,46,10.70
2019,05,26,06,47,10.80
2019,05,26,06,48,10.90
2019,05,26,06,49,10.90
2019,05,26,06,50,11.00
2019,05,26,06,51,11.00
2019,05,26,06,52,11.10
2019,05,26,06,53,11.10
2019,05,26,06,54,11.20
2019,05,26,06,55,11.20
2019,05,26,06,56,11.30
2019,05,26,06,57,11.30
2019,05,26,06,58,11.30
2019,05,26,06,59,11.40
2019,05,26,07,00,11.40
2019,05,26,07,01,11.50
2019,05,26,07,02,11.50
2019,05,26,07,03,11.60
2019,05,26,07,04,11.60
2019,05,26,07,05,11.60
2019,05,26,07,06,11.60
2019,05,26,07,07,11.70
2019,05,26,07,08,11.70
2019,05,26,07,09,11.70
2019,05,26,07,10,11.70
2019,05,26,07,11,11.70
2019,05,26,07,12,11.70
2019,05,26,07,13,11.80
2019,05,26,07,14,11.80
2019,05,26,07,15,11.80
2019,05,26,07,16,11.80
2019,05,26,07,17,11.90
2019,05,26,07,18,11.90
2019,05,26,07,19,11.90
2019,05,26,07,20,11.90
2019,05,26,07,21,12.00
2019,05,26,07,22,12.00
2019,05,26,07,23,12.00
2019,05,26,07,24,12.10
2019,05,26,07,25,12.10
2019,05,26,07,26,12.20
2019,05,26,07,27,12.20
2019,05,26,07,28,12.30
2019,05,26,07,29,12.30
2019,05,26,07,30,12.40
2019,05,26,07,31,12.50
2019,05,26,07,32,12.50
2019,05,26,07,33,12.60
2019,05,26,07,34,12.60
2019,05,26,07,35,12.70
2019,05,26,07,36,12.80
2019,05,26,07,37,12.90
2019,05,26,07,38,12.90
2019,05,26,07,39,13.00
2019,05,26,07,40,13.10
2019,05,26,07,41,13.20
2019,05,26,07,42,13.30
2019,05,26,07,43,13.30
2019,05,26,07,44,13.40
2019,05,26,07,45,13.50
2019,05,26,07,46,13.50
2019,05,26,07,47,13.60
2019,05,26,07,48,13.60
2019,05,26,07,49,13.60
2019,05,26,07,50,13.70
2019,05,26,07,51,13.70
2019,05,26,07,52,13.80
2019,05,26,07,53,13.80
2019,05,26,07,54,13.90
2019,05,26,07,55,13.90
2019,05,26,07,56,13.90
2019,05,26,07,57,13.90
2019,05,26,07,58,13.90
2019,05,26,07,59,13.90
2019,05,26,08,00,14.00
2019,05,26,08,01,14.10
2019,05,26,08,02,14.10
2019,05,26,08,03,14.10
2019,05,26,08,04,14.10
2019,05,26,08,05,14.10
2019,05,26,08,06,14.20
2019,05,26,08,07,14.20
2019,05,26,08,08,14.20
2019,05,26,08,09,14.20
2019,05,26,08,10,14.20
2019,05,26,08,11,14.20
2019,05,26,08,12,14.30
2019,05,26,08,13,14.30
2019,05,26,08,14,14.30
2019,05,26,08,15,14.30
2019,05,26,08,16,14.40
2019,05,26,08,17,14.40
2019,05,26,08,18,14.40
2019,05,26,08,19,14.40
2019,05,26,08,20,14.50
2019,05,26,08,21,14.50
2019,05,26,08,22,14.50
2019,05,26,08,23,14.60
2019,05,26,08,24,14.60
2019,05,26,08,25,14.60
2019,05,26,08,26,14.70
2019,05,26,08,27,14.70
2019,05,26,08,28,14.70
2019,05,26,08,29,14.80
2019,05,26,08,30,14.80
2019,05,26,08,31,14.70
2019,05,26,08,32,14.70
2019,05,26,08,33,14.70
2019,05,26,08,34,14.70
2019,05,26,08,35,14.70
2019,05,26,08,36,14.70
2019,05,26,08,37,14.70
2019,05,26,08,38,14.70
2019,05,26,08,39,14.70
2019,05,26,08,40,14.70
2019,05,26,08,41,14.70
2019,05,26,08,42,14.80
2019,05,26,08,43,14.80
2019,05,26,08,44,14.80
2019,05,26,08,45,14.90
2019,05,26,08,46,14.90
2019,05,26,08,47,14.90
2019,05,26,08,48,14.80
2019,05,26,08,49,14.80
2019,05,26,08,50,14.80
2019,05,26,08,51,14.90
2019,05,26,08,52,14.90
2019,05,26,08,53,14.90
2019,05,26,08,54,15.00
2019,05,26,08,55,15.00
2019,05,26,08,56,15.10
2019,05,26,08,57,15.00
2019,05,26,08,58,15.10
2019,05,26,08,59,15.10
2019,05,26,09,00,15.10
2019,05,26,09,01,15.00
2019,05,26,09,02,15.00
2019,05,26,09,03,15.00
2019,05,26,09,04,15.00
2019,05,26,09,05,15.00
2019,05,26,09,06,15.00
2019,05,26,09,07,15.10
2019,05,26,09,08,15.10
2019,05,26,09,09,15.10
2019,05,26,09,10,15.10
2019,05,26,09,11,15.10
2019,05,26,09,12,15.20
2019,05,26,09,13,15.20
2019,05,26,09,14,15.20
2019,05,26,09,15,15.10
2019,05,26,09,16,15.00
2019,05,26,09,17,15.00
2019,05,26,09,18,15.00
2019,05,26,09,19,15.00
2019,05,26,09,20,15.10
2019,05,26,09,21,15.10
2019,05,26,09,22,15.10
2019,05,26,09,23,15.10
2019,05,26,09,24,15.10
2019,05,26,09,25,15.10
2019,05,26,09,26,15.10
2019,05,26,09,27,15.20
2019,05,26,09,28,15.20
2019,05,26,09,29,15.20
2019,05,26,09,30,15.30
2019,05,26,09,31,15.30
2019,05,26,09,32,15.30
2019,05,26,09,33,15.40
2019,05,26,09,34,15.40
2019,05,26,09,35,15.40
2019,05,26,09,36,15.50
2019,05,26,09,37,15.50
2019,05,26,09,38,15.60
2019,05,26,09,39,15.60
2019,05,26,09,40,15.70
2019,05,26,09,41,15.70
2019,05,26,09,42,15.60
2019,05,26,09,43,15.50
2019,05,26,09,44,15.50
2019,05,26,09,45,15.40
2019,05,26,09,46,15.40
2019,05,26,09,47,15.50
2019,05,26,09,48,15.50
2019,05,26,09,49,15.60
2019,05,26,09,50,15.60
2019,05,26,09,51,15.70
2019,05,26,09,52,15.80
2019,05,26,09,53,15.80
2019,05,26,09,54,15.90
2019,05,26,09,55,15.90
2019,05,26,09,56,15.90
2019,05,26,09,57,15.90
2019,05,26,09,58,15.90
2019,05,26,09,59,15.90
2019,05,26,10,00,15.90
2019,05,26,10,01,16.00
2019,05,26,10,02,16.00
2019,05,26,10,03,16.10
2019,05,26,10,04,16.10
2019,05,26,10,05,16.10
2019,05,26,10,06,16.00
2019,05,26,10,07,16.00
2019,05,26,10,08,16.00
2019,05,26,10,09,16.00
2019,05,26,10,10,16.00
2019,05,26,10,11,15.90
2019,05,26,10,12,15.90
2019,05,26,10,13,15.90
2019,05,26,10,14,15.90
2019,05,26,10,15,15.90
2019,05,26,10,16,15.90
2019,05,26,10,17,16.00
2019,05,26,10,18,16.00
2019,05,26,10,19,16.10
2019,05,26,10,20,16.10
2019,05,26,10,21,16.10
2019,05,26,10,22,16.10
2019,05,26,10,23,16.20
2019,05,26,10,24,16.30
2019,05,26,10,25,16.30
2019,05,26,10,26,16.40
2019,05,26,10,27,16.50
2019,05,26,10,28,16.60
2019,05,26,10,29,16.70
2019,05,26,10,30,16.80
2019,05,26,10,31,16.80
2019,05,26,10,32,16.90
2019,05,26,10,33,16.90
2019,05,26,10,34,16.80
2019,05,26,10,35,16.80
2019,05,26,10,36,16.70
2019,05,26,10,37,16.60
2019,05,26,10,38,16.50
2019,05,26,10,39,16.40
2019,05,26,10,40,16.30
2019,05,26,10,41,16.30
2019,05,26,10,42,16.30
2019,05,26,10,43,16.40
2019,05,26,10,44,16.40
2019,05,26,10,45,16.50
2019,05,26,10,46,16.60
2019,05,26,10,47,16.70
2019,05,26,10,48,16.80
2019,05,26,10,49,16.90
2019,05,26,10,50,16.90
2019,05,26,10,51,16.90
2019,05,26,10,52,16.90
2019,05,26,10,53,16.90
2019,05,26,10,54,16.90
2019,05,26,10,55,17.00
2019,05,26,10,56,17.00
2019,05,26,10,57,17.10
2019,05,26,10,58,17.10
2019,05,26,10,59,17.10
2019,05,26,11,00,17.00
2019,05,26,11,01,17.10
2019,05,26,11,02,17.10
2019,05,26,11,03,17.10
2019,05,26,11,04,17.10
2019,05,26,11,05,17.10
2019,05,26,11,06,17.10
2019,05,26,11,07,17.10
2019,05,26,11,08,17.20
2019,05,26,11,09,17.20
2019,05,26,11,10,17.30
2019,05,26,11,11,17.40
2019,05,26,11,12,17.40
2019,05,26,11,13,17.50
2019,05,26,11,14,17.50
2019,05,26,11,15,17.50
2019,05,26,11,16,17.60
2019,05,26,11,17,17.60
2019,05,26,11,18,17.60
2019,05,26,11,19,17.60
2019,05,26,11,20,17.60
2019,05,26,11,21,17.70
2019,05,26,11,22,17.70
2019,05,26,11,23,17.80
2019,05,26,11,24,17.80
2019,05,26,11,25,17.80
2019,05,26,11,26,17.80
2019,05,26,11,27,17.80
2019,05,26,11,28,17.80
2019,05,26,11,29,17.80
2019,05,26,11,30,17.80
2019,05,26,11,31,17.80
2019,05,26,11,32,17.90
2019,05,26,11,33,17.90
2019,05,26,11,34,17.90
2019,05,26,11,35,17.90
2019,05,26,11,36,17.90
2019,05,26,11,37,17.80
2019,05,26,11,38,17.80
2019,05,26,11,39,17.80
2019,05,26,11,40,17.90
2019,05,26,11,41,17.90
2019,05,26,11,42,18.00
2019,05,26,11,43,18.00
2019,05,26,11,44,18.10
2019,05,26,11,45,18.10
2019,05,26,11,46,18.10
2019,05,26,11,47,18.10
2019,05,26,11,48,18.10
2019,05,26,11,49,18.10
2019,05,26,11,50,18.00
2019,05,26,11,51,18.00
2019,05,26,11,52,18.00
2019,05,26,11,53,18.00
2019,05,26,11,54,18.00
2019,05,26,11,55,17.90
2019,05,26,11,56,17.90
2019,05,26,11,57,18.00
2019,05,26,11,58,18.00
2019,05,26,11,59,18.00
2019,05,26,12,00,17.90
2019,05,26,12,01,17.80
2019,05,26,12,02,17.70
2019,05,26,12,03,17.60
2019,05,26,12,04,17.60
2019,05,26,12,05,17.60
2019,05,26,12,06,17.50
2019,05,26,12,07,17.40
2019,05,26,12,08,17.40
2019,05,26,12,09,17.30
2019,05,26,12,10,17.20
2019,05,26,12,11,17.10
2019,05,26,12,12,17.10
2019,05,26,12,13,17.00
2019,05,26,12,14,17.00
2019,05,26,12,15,17.10
2019,05,26,12,16,17.00
2019,05,26,12,17,17.10
2019,05,26,12,18,17.10
2019,05,26,12,19,17.10
2019,05,26,12,20,17.10
2019,05,26,12,21,17.10
2019,05,26,12,22,17.10
2019,05,26,12,23,17.10
2019,05,26,12,24,17.00
2019,05,26,12,25,17.00
2019,05,26,12,26,17.00
2019,05,26,12,27,17.00
2019,05,26,12,28,16.90
2019,05,26,12,29,16.90
2019,05,26,12,30,16.90
2019,05,26,12,31,16.80
2019,05,26,12,32,16.90
2019,05,26,12,33,17.00
2019,05,26,12,34,17.10
2019,05,26,12,35,17.20
2019,05,26,12,36,17.30
2019,05,26,12,37,17.30
2019,05,26,12,38,17.40
2019,05,26,12,39,17.50
2019,05,26,12,40,17.50
2019,05,26,12,41,17.60
2019,05,26,12,42,17.60
2019,05,26,12,43,17.70
2019,05,26,12,44,17.80
2019,05,26,12,45,17.80
2019,05,26,12,46,17.80
2019,05,26,12,47,17.70
2019,05,26,12,48,17.60
2019,05,26,12,49,17.60
2019,05,26,12,50,17.40
2019,05,26,12,51,17.20
2019,05,26,12,52,17.10
2019,05,26,12,53,17.00
2019,05,26,12,54,16.90
2019,05,26,12,55,16.90
2019,05,26,12,56,16.80
2019,05,26,12,57,16.90
2019,05,26,12,58,16.90
2019,05,26,12,59,17.00
2019,05,26,13,00,17.10
2019,05,26,13,01,17.20
2019,05,26,13,02,17.30
2019,05,26,13,03,17.30
2019,05,26,13,04,17.40
2019,05,26,13,05,17.50
2019,05,26,13,06,17.60
2019,05,26,13,07,17.60
2019,05,26,13,08,17.60
2019,05,26,13,09,17.70
2019,05,26,13,10,17.70
2019,05,26,13,11,17.70
2019,05,26,13,12,17.70
2019,05,26,13,13,17.60
2019,05,26,13,14,17.50
2019,05,26,13,15,17.40
2019,05,26,13,16,17.40
2019,05,26,13,17,17.50
2019,05,26,13,18,17.50
2019,05,26,13,19,17.60
2019,05,26,13,20,17.70
2019,05,26,13,21,17.80
2019,05,26,13,22,17.90
2019,05,26,13,23,18.10
2019,05,26,13,24,18.20
2019,05,26,13,25,18.30
2019,05,26,13,26,18.40
2019,05,26,13,27,18.40
2019,05,26,13,28,18.50
2019,05,26,13,29,18.50
2019,05,26,13,30,18.50
2019,05,26,13,31,18.60
2019,05,26,13,32,18.60
2019,05,26,13,33,18.60
2019,05,26,13,34,18.60
2019,05,26,13,35,18.50
2019,05,26,13,36,18.50
2019,05,26,13,37,18.50
2019,05,26,13,38,18.50
2019,05,26,13,39,18.60
2019,05,26,13,40,18.50
2019,05,26,13,41,18.50
2019,05,26,13,42,18.40
2019,05,26,13,43,18.40
2019,05,26,13,44,18.30
2019,05,26,13,45,18.20
2019,05,26,13,46,18.20
2019,05,26,13,47,18.30
2019,05,26,13,48,18.30
2019,05,26,13,49,18.30
2019,05,26,13,50,18.30
2019,05,26,13,51,18.30
2019,05,26,13,52,18.30
2019,05,26,13,53,18.30
2019,05,26,13,54,18.30
2019,05,26,13,55,18.30
2019,05,26,13,56,18.30
2019,05,26,13,57,18.20
2019,05,26,13,58,18.20
2019,05,26,13,59,18.10
2019,05,26,14,00,18.10
2019,05,26,14,01,18.00
2019,05,26,14,02,18.00
2019,05,26,14,03,17.90
2019,05,26,14,04,17.90
2019,05,26,14,05,17.80
2019,05,26,14,06,17.80
2019,05,26,14,07,17.80
2019,05,26,14,08,17.80
2019,05,26,14,09,17.80
2019,05,26,14,10,17.90
2019,05,26,14,11,18.00
2019,05,26,14,12,18.10
2019,05,26,14,13,18.20
2019,05,26,14,14,18.20
2019,05,26,14,15,18.20
2019,05,26,14,16,18.30
2019,05,26,14,17,18.30
2019,05,26,14,18,18.20
2019,05,26,14,19,18.20
2019,05,26,14,20,18.30
2019,05,26,14,21,18.30
2019,05,26,14,22,18.30
2019,05,26,14,23,18.30
2019,05,26,14,24,18.30
2019,05,26,14,25,18.30
2019,05,26,14,26,18.30
2019,05,26,14,27,18.30
2019,05,26,14,28,18.30
2019,05,26,14,29,18.40
2019,05,26,14,30,18.40
2019,05,26,14,31,18.50
2019,05,26,14,32,18.60
2019,05,26,14,33,18.60
2019,05,26,14,34,18.70
2019,05,26,14,35,18.80
2019,05,26,14,36,18.90
2019,05,26,14,37,19.00
2019,05,26,14,38,19.10
2019,05,26,14,39,19.20
2019,05,26,14,40,19.20
2019,05,26,14,41,19.20
2019,05,26,14,42,19.20
2019,05,26,14,43,19.20
2019,05,26,14,44,19.20
2019,05,26,14,45,19.20
2019,05,26,14,46,19.20
2019,05,26,14,47,19.20
2019,05,26,14,48,19.30
2019,05,26,14,49,19.30
2019,05,26,14,50,19.40
2019,05,26,14,51,19.40
2019,05,26,14,52,19.40
2019,05,26,14,53,19.50
2019,05,26,14,54,19.50
2019,05,26,14,55,19.60
2019,05,26,14,56,19.50
2019,05,26,14,57,19.50
2019,05,26,14,58,19.50
2019,05,26,14,59,19.50
2019,05,26,15,00,19.40
2019,05,26,15,01,19.30
2019,05,26,15,02,19.30
2019,05,26,15,03,19.20
2019,05,26,15,04,19.10
2019,05,26,15,05,19.10
2019,05,26,15,06,19.10
2019,05,26,15,07,19.00
2019,05,26,15,08,18.90
2019,05,26,15,09,18.80
2019,05,26,15,10,18.80
2019,05,26,15,11,18.70
2019,05,26,15,12,18.70
2019,05,26,15,13,18.60
2019,05,26,15,14,18.70
2019,05,26,15,15,18.70
2019,05,26,15,16,18.80
2019,05,26,15,17,18.80
2019,05,26,15,18,18.80
2019,05,26,15,19,18.80
2019,05,26,15,20,18.70
2019,05,26,15,21,18.60
2019,05,26,15,22,18.60
2019,05,26,15,23,18.60
2019,05,26,15,24,18.60
2019,05,26,15,25,18.70
2019,05,26,15,26,18.70
2019,05,26,15,27,18.80
2019,05,26,15,28,18.80
2019,05,26,15,29,18.90
2019,05,26,15,30,18.90
2019,05,26,15,31,18.80
2019,05,26,15,32,18.80
2019,05,26,15,33,18.80
2019,05,26,15,34,18.80
2019,05,26,15,35,18.80
2019,05,26,15,36,18.80
2019,05,26,15,37,18.90
2019,05,26,15,38,18.90
2019,05,26,15,39,19.00
2019,05,26,15,40,19.00
2019,05,26,15,41,19.00
2019,05,26,15,42,19.00
2019,05,26,15,43,19.00
2019,05,26,15,44,19.00
2019,05,26,15,45,19.00
2019,05,26,15,46,19.10
2019,05,26,15,47,19.10
2019,05,26,15,48,19.20
2019,05,26,15,49,19.30
2019,05,26,15,50,19.30
2019,05,26,15,51,19.40
2019,05,26,15,52,19.40
2019,05,26,15,53,19.50
2019,05,26,15,54,19.60
2019,05,26,15,55,19.60
2019,05,26,15,56,19.70
2019,05,26,15,57,19.70
2019,05,26,15,58,19.70
2019,05,26,15,59,19.80
2019,05,26,16,00,19.80
2019,05,26,16,01,19.80
2019,05,26,16,02,19.90
2019,05,26,16,03,20.00
2019,05,26,16,04,20.00
2019,05,26,16,05,20.10
2019,05,26,16,06,20.20
2019,05,26,16,07,20.30
2019,05,26,16,08,20.40
2019,05,26,16,09,20.50
2019,05,26,16,10,20.60
2019,05,26,16,11,20.70
2019,05,26,16,12,20.70
2019,05,26,16,13,20.80
2019,05,26,16,14,20.80
2019,05,26,16,15,20.90
2019,05,26,16,16,20.90
2019,05,26,16,17,21.00
2019,05,26,16,18,21.00
2019,05,26,16,19,21.00
2019,05,26,16,20,21.10
2019,05,26,16,21,21.10
2019,05,26,16,22,21.10
2019,05,26,16,23,21.10
2019,05,26,16,24,21.10
2019,05,26,16,25,21.00
2019,05,26,16,26,21.00
2019,05,26,16,27,21.00
2019,05,26,16,28,21.10
2019,05,26,16,29,21.10
2019,05,26,16,30,21.10
2019,05,26,16,31,21.20
2019,05,26,16,32,21.20
2019,05,26,16,33,21.20
2019,05,26,16,34,21.20
2019,05,26,16,35,21.30
2019,05,26,16,36,21.30
2019,05,26,16,37,21.40
2019,05,26,16,38,21.40
2019,05,26,16,39,21.40
2019,05,26,16,40,21.40
2019,05,26,16,41,21.40
2019,05,26,16,42,21.50
2019,05,26,16,43,21.60
2019,05,26,16,44,21.70
2019,05,26,16,45,21.80
2019,05,26,16,46,21.80
2019,05,26,16,47,21.90
2019,05,26,16,48,22.10
2019,05,26,16,49,22.20
2019,05,26,16,50,22.30
2019,05,26,16,51,22.50
2019,05,26,16,52,22.70
2019,05,26,16,53,22.80
2019,05,26,16,54,23.00
2019,05,26,16,55,23.10
2019,05,26,16,56,23.20
2019,05,26,16,57,23.30
2019,05,26,16,58,23.20
2019,05,26,16,59,23.10
2019,05,26,17,00,23.10
2019,05,26,17,01,23.00
2019,05,26,17,02,22.90
2019,05,26,17,03,22.80
2019,05,26,17,04,22.80
2019,05,26,17,05,22.80
2019,05,26,17,06,22.80
2019,05,26,17,07,22.90
2019,05,26,17,08,23.00
2019,05,26,17,09,23.10
2019,05,26,17,10,23.10
2019,05,26,17,11,23.20
2019,05,26,17,12,23.20
2019,05,26,17,13,23.20
2019,05,26,17,14,23.20
2019,05,26,17,15,23.20
2019,05,26,17,16,23.20
2019,05,26,17,17,23.20
2019,05,26,17,18,23.20
2019,05,26,17,19,23.20
2019,05,26,17,20,23.10
2019,05,26,17,21,23.10
2019,05,26,17,22,23.10
2019,05,26,17,23,23.00
2019,05,26,17,24,23.00
2019,05,26,17,25,23.00
2019,05,26,17,26,23.00
2019,05,26,17,27,23.00
2019,05,26,17,28,22.90
2019,05,26,17,29,22.90
2019,05,26,17,30,22.90
2019,05,26,17,31,22.80
2019,05,26,17,32,22.70
2019,05,26,17,33,22.60
2019,05,26,17,34,22.50
2019,05,26,17,35,22.40